Showing default

INTELSAT 31, 41581

Orbit data source: Space-Track

INTELSAT 31, 41581 is an American payload satellite in GEO that was launched on Thu, 09 Jun 2016 UTC via a PROTON-M/BRIZ-M launch vehicle from the Tyuratam Missile And Space Complex (TTMTR). Payload-class satellites include a variety of spacecraft equipped with specific instruments for various scientific and technological missions. These include communications satellites like Starlink; space stations such as the ISS; scientific satellites like the Hubble; Earth observation satellites from companies like Planet Labs, Umbra, and HawkEye 360; GPS; miniature CubeSats for education and research; and military/defense satellites.

Loading next visibility...
Identifier
41581, 2016-035A
Orbit
GEO
Country
Flag of UnknownUnknown / ITSO
Related business
Manufacturer
SS/Loral (MDA)
Mission
Operational Commercial Communications
Bus & Motor
LS-1300S, R-4D-11
Mass
6,450 kg wet, 3,000 kg dry
Launch date (UTC)
2016-06-09 (9 years ago)
Launch vehicle
PROTON-M/BRIZ-M
Launch site
Tyuratam Missile And Space Complex (TTMTR)
Object type
Payload
Rocket body
Debris
Shape & HBR
Box + 2 Pan, Unknown HBR
Radar Cross Section
55.801 m², Large (>1 m²)

Expand to show TLE details & history
Last TLE update: 11 hours ago

TLE from 11 hours ago
0 INTELSAT 31
1 41581U 16035A   25260.92084435 -.00000171  00000-0  00000-0 0  9994
2 41581   0.0184 221.9671 0001809   6.8044   4.7594  1.00270029 33952
Epoch: 2025-09-17T22:06Z
TLE epoch observation values (Epoch: 2025-09-17T22:06:00.951Z)
Latitude
0.01859°
Longitude
-95.05925°
Altitude
35,778.995 km
Speed
3.075 km/s
True Right ascension
15h 34m 08s
True Declination
0° 01' 07"
Sunlit
Object was in daylight at epoch
Visualization orbit readout
Latitude
Unknown
Longitude
Unknown
Altitude
Unknown
Speed
Unknown
Apparent Right ascension
Unknown
Apparent Declination
Unknown
Sunlit
N/A
Visualization observer readout
Local Sidereal Time
02:24:54
Azimuth
Unknown
Elevation
Unknown
Doppler factor
Unknown
Orbital elements
Apogee altitude
35,795.785 km
Perigee altitude
35,780.53 km
Semi-major axis
42,166.295 km
Eccentricity
0.00018
Inclination
0.0184°
RAAN
221.9671°
Arg. of periapsis
6.8044°
True anomaly
4.76112°
Mean anomaly
4.7594°
Eccentric anomaly
4.76026°
Mean motion
0.25067 °/min
Orbital period
1,436.18 mins
BSTAR
0
Loading maneuver chart data...
Computing Atmospheric mass density...
Loading historical data...
Loading historical data...
Loading historical data...
Loading historical data...
Loading historical data...
Loading historical data...
Loading historical data...
Other satellites on launch #35 in the year 2016 (2016-06-09 UTC)

Documentation

Showing up to 5 results
|